| time (UTC) | temp F | wind direction | speed MPH | gust MPH | rain 1hr in | rain 24hr in | rain mn in | humidity % | barometer mb |
| 20260507070554 | 50 | 187 | 1.0 | 3.0 | 0.01 | 0.03 | 0.02 | 96 | 1012.1 |
| 20260507065615 | 49 | 197 | 2.0 | 5.0 | 0.01 | 0.03 | 0.02 | 96 | 1012.1 |
| 20260507064554 | 49 | 182 | 1.0 | 5.0 | 0.01 | 0.03 | 0.02 | 95 | 1012.0 |
| 20260507063615 | 50 | 224 | 2.0 | 11.0 | 0.00 | 0.02 | 0.01 | 93 | 1011.9 |
| 20260507062556 | 50 | 221 | 2.0 | 6.0 | 0.00 | 0.02 | 0.01 | 92 | 1011.7 |
| 20260507061556 | 49 | 178 | 1.0 | 6.0 | 0.00 | 0.02 | 0.01 | 96 | 1011.7 |
| 20260507060556 | 49 | 133 | 0.0 | 1.0 | 0.00 | 0.02 | 0.01 | 98 | 1011.6 |
| 20260507055557 | 49 | 124 | 0.0 | 1.0 | 0.00 | 0.02 | 0.01 | 99 | 1011.5 |
| 20260507054557 | 49 | 148 | 0.0 | 2.0 | 0.00 | 0.02 | 0.01 | 99 | 1011.4 |
| 20260507053558 | 49 | 134 | 0.0 | 2.0 | 0.00 | 0.02 | 0.01 | 98 | 1011.4 |
| 20260507052600 | 48 | 156 | 0.0 | 1.0 | 0.00 | 0.02 | 0.01 | 99 | 1011.3 |
| 20260507051559 | 48 | 104 | 0.0 | 1.0 | 0.00 | 0.02 | 0.01 | 99 | 1011.1 |
| 20260507050559 | 47 | 129 | 0.0 | 2.0 | 0.00 | 0.02 | 0.01 | 99 | 1011.1 |
| 20260507045600 | 48 | 111 | 0.0 | 1.0 | 0.00 | 0.02 | 0.01 | 99 | 1010.9 |
| 20260507044559 | 48 | 0.0 | 0.0 | 0.00 | 0.02 | 0.01 | 99 | 1010.6 | |
| 20260507043532 | 47 | 0.0 | 1.0 | 0.00 | 0.02 | 0.01 | 99 | 1010.6 | |
| 20260507042533 | 47 | 0.0 | 1.0 | 0.00 | 0.02 | 0.01 | 99 | 1010.5 | |
| 20260507041533 | 47 | 0.0 | 0.0 | 0.00 | 0.02 | 0.01 | 99 | 1010.3 | |
| 20260507040535 | 47 | 0.0 | 0.0 | 0.00 | 0.02 | 0.01 | 99 | 1010.3 | |
| 20260507035553 | 47 | 0.0 | 0.0 | 0.00 | 0.02 | 0.01 | 99 | 1010.3 | |
| 20260507034535 | 47 | 0.0 | 0.0 | 0.00 | 0.02 | 0.01 | 99 | 1010.3 | |
| 20260507033554 | 47 | 0.0 | 0.0 | 0.00 | 0.02 | 0.01 | 99 | 1010.4 | |
| 20260507032535 | 47 | 0.0 | 0.0 | 0.00 | 0.02 | 0.01 | 99 | 1010.3 | |
| 20260507031535 | 47 | 121 | 0.0 | 1.0 | 0.00 | 0.02 | 0.01 | 99 | 1010.4 |
| 20260507030536 | 47 | 114 | 0.0 | 1.0 | 0.00 | 0.02 | 0.01 | 99 | 1010.4 |
| 20260507025556 | 47 | 117 | 0.0 | 1.0 | 0.00 | 0.02 | 0.01 | 99 | 1010.4 |
| 20260507024556 | 47 | 112 | 0.0 | 2.0 | 0.00 | 0.02 | 0.01 | 99 | 1010.2 |
| 20260507023538 | 47 | 107 | 0.0 | 2.0 | 0.00 | 0.02 | 0.01 | 99 | 1010.2 |
| 20260507022537 | 47 | 100 | 0.0 | 2.0 | 0.00 | 0.02 | 0.01 | 99 | 1010.0 |
| 20260507021538 | 47 | 160 | 0.0 | 2.0 | 0.00 | 0.02 | 0.01 | 99 | 1010.0 |
| 20260507020538 | 47 | 132 | 0.0 | 1.0 | 0.00 | 0.02 | 0.01 | 99 | 1009.9 |
| 20260507015539 | 47 | 131 | 0.0 | 2.0 | 0.00 | 0.02 | 0.01 | 98 | 1009.8 |
| 20260507014539 | 47 | 160 | 0.0 | 2.0 | 0.00 | 0.02 | 0.01 | 98 | 1009.8 |
| 20260507013600 | 48 | 143 | 0.0 | 2.0 | 0.00 | 0.02 | 0.01 | 96 | 1009.8 |
| 20260507012541 | 49 | 126 | 1.0 | 3.0 | 0.01 | 0.02 | 0.01 | 92 | 1009.7 |
| 20260507011540 | 49 | 199 | 2.0 | 6.0 | 0.01 | 0.02 | 0.01 | 92 | 1009.6 |
| 20260507010541 | 48 | 184 | 2.0 | 5.0 | 0.01 | 0.02 | 0.01 | 95 | 1009.7 |
| 20260507005542 | 49 | 135 | 1.0 | 2.0 | 0.01 | 0.02 | 0.01 | 95 | 1009.6 |
| 20260507004542 | 49 | 137 | 1.0 | 2.0 | 0.01 | 0.02 | 0.01 | 94 | 1009.5 |
| 20260507003543 | 49 | 174 | 1.0 | 5.0 | 0.01 | 0.02 | 0.01 | 93 | 1009.5 |
| 20260507002543 | 49 | 184 | 2.0 | 5.0 | 0.00 | 0.01 | 0.00 | 91 | 1009.4 |
| 20260507001543 | 49 | 134 | 1.0 | 5.0 | 0.00 | 0.01 | 0.00 | 91 | 1009.4 |
| 20260507000543 | 49 | 83 | 2.0 | 6.0 | 0.00 | 0.01 | 0.00 | 94 | 1009.4 |
| 20260506235543 | 49 | 102 | 1.0 | 3.0 | 0.00 | 0.01 | 0.00 | 93 | 1009.5 |
| 20260506234545 | 49 | 193 | 3.0 | 8.0 | 0.00 | 0.01 | 0.00 | 92 | 1009.6 |
| 20260506233544 | 49 | 143 | 1.0 | 3.0 | 0.00 | 0.01 | 0.00 | 93 | 1009.4 |
| 20260506232545 | 49 | 208 | 2.0 | 6.0 | 0.00 | 0.01 | 0.00 | 92 | 1009.5 |
| 20260506231545 | 49 | 138 | 0.0 | 2.0 | 0.00 | 0.01 | 0.00 | 93 | 1009.5 |
| 20260506230546 | 49 | 146 | 1.0 | 5.0 | 0.00 | 0.01 | 0.00 | 92 | 1009.6 |
| 20260506225546 | 49 | 138 | 1.0 | 6.0 | 0.00 | 0.01 | 0.00 | 91 | 1009.5 |
| 20260506224548 | 49 | 158 | 1.0 | 5.0 | 0.00 | 0.01 | 0.00 | 92 | 1009.4 |
| 20260506223547 | 49 | 235 | 2.0 | 6.0 | 0.00 | 0.01 | 0.00 | 94 | 1009.4 |
| 20260506222547 | 49 | 142 | 1.0 | 5.0 | 0.00 | 0.01 | 0.00 | 96 | 1009.5 |
| 20260506221548 | 49 | 135 | 2.0 | 6.0 | 0.00 | 0.02 | 0.00 | 96 | 1009.4 |
| 20260506220548 | 49 | 193 | 1.0 | 6.0 | 0.00 | 0.02 | 0.00 | 96 | 1009.3 |
| 20260506215549 | 49 | 126 | 0.0 | 1.0 | 0.00 | 0.02 | 0.02 | 96 | 1009.3 |
| 20260506214550 | 49 | 147 | 1.0 | 3.0 | 0.00 | 0.02 | 0.02 | 96 | 1009.2 |
| 20260506213550 | 49 | 123 | 1.0 | 3.0 | 0.00 | 0.03 | 0.02 | 95 | 1009.2 |
| 20260506212550 | 49 | 97 | 0.0 | 1.0 | 0.00 | 0.03 | 0.02 | 95 | 1009.0 |
| 20260506211550 | 49 | 102 | 1.0 | 5.0 | 0.00 | 0.03 | 0.02 | 94 | 1009.0 |
| 20260506210551 | 49 | 139 | 1.0 | 5.0 | 0.00 | 0.04 | 0.02 | 94 | 1009.2 |
| 20260506205551 | 49 | 181 | 2.0 | 6.0 | 0.00 | 0.04 | 0.02 | 94 | 1009.2 |
| 20260506204552 | 50 | 171 | 1.0 | 8.0 | 0.00 | 0.04 | 0.02 | 93 | 1009.0 |
| 20260506203552 | 49 | 199 | 2.0 | 6.0 | 0.00 | 0.04 | 0.02 | 94 | 1008.9 |
| 20260506202552 | 49 | 165 | 1.0 | 3.0 | 0.00 | 0.04 | 0.02 | 94 | 1008.6 |
| 20260506201613 | 50 | 171 | 1.0 | 3.0 | 0.00 | 0.04 | 0.02 | 93 | 1008.6 |
| 20260506200554 | 50 | 162 | 1.0 | 5.0 | 0.00 | 0.04 | 0.02 | 92 | 1008.8 |
| 20260506195553 | 50 | 220 | 2.0 | 5.0 | 0.00 | 0.04 | 0.02 | 93 | 1008.6 |
| 20260506194554 | 50 | 125 | 2.0 | 7.0 | 0.00 | 0.04 | 0.02 | 93 | 1008.4 |
| 20260506193554 | 50 | 177 | 3.0 | 8.0 | 0.00 | 0.04 | 0.02 | 93 | 1008.3 |
| 20260506192555 | 50 | 197 | 2.0 | 6.0 | 0.00 | 0.04 | 0.02 | 94 | 1008.1 |
| 20260506191555 | 50 | 184 | 2.0 | 6.0 | 0.00 | 0.04 | 0.02 | 94 | 1008.0 |
| 20260506190555 | 50 | 170 | 1.0 | 5.0 | 0.00 | 0.04 | 0.02 | 93 | 1007.8 |
| 20260506185557 | 50 | 128 | 1.0 | 6.0 | 0.00 | 0.04 | 0.02 | 93 | 1007.6 |
| 20260506184556 | 50 | 292 | 3.0 | 10.0 | 0.00 | 0.04 | 0.02 | 94 | 1007.4 |
| 20260506183637 | 50 | 153 | 1.0 | 5.0 | 0.00 | 0.04 | 0.02 | 95 | 1007.3 |
| 20260506182618 | 50 | 199 | 2.0 | 7.0 | 0.01 | 0.04 | 0.02 | 95 | 1007.1 |
| 20260506181558 | 50 | 140 | 1.0 | 3.0 | 0.01 | 0.04 | 0.02 | 96 | 1007.0 |
| 20260506180558 | 50 | 100 | 1.0 | 6.0 | 0.01 | 0.04 | 0.02 | 95 | 1006.9 |
| 20260506175559 | 51 | 4 | 3.0 | 11.0 | 0.01 | 0.04 | 0.02 | 95 | 1006.8 |
| 20260506174620 | 52 | 268 | 4.0 | 13.0 | 0.01 | 0.04 | 0.02 | 98 | 1006.7 |
| 20260506173620 | 53 | 209 | 2.0 | 7.0 | 0.01 | 0.04 | 0.02 | 99 | 1006.2 |
| 20260506172600 | 53 | 222 | 2.0 | 7.0 | 0.00 | 0.03 | 0.01 | 99 | 1005.7 |
| 20260506171601 | 53 | 71 | 0.0 | 1.0 | 0.00 | 0.03 | 0.01 | 99 | 1005.5 |
| 20260506170601 | 53 | 137 | 0.0 | 1.0 | 0.00 | 0.03 | 0.01 | 99 | 1005.1 |
| 20260506165601 | 53 | 145 | 1.0 | 3.0 | 0.00 | 0.03 | 0.01 | 99 | 1004.9 |
| 20260506164603 | 53 | 183 | 1.0 | 3.0 | 0.00 | 0.03 | 0.01 | 99 | 1004.9 |